This is the latest recevied weather packets stored in our database for station/object SQ9IAB-13. If no packets are shown the sender has not sent any weather packets the latest 1 day(s).
| Time | Temp. | Humidity | Pressure | Rain* | Wind** | Luminosity | Snow |
|---|---|---|---|---|---|---|---|
| 1778079266 | 28.33° C | 25% | 995.3 hPa | 0 mm | - | - | - |
| 1778079206 | 28.33° C | 26% | 995.2 hPa | 0 mm | - | - | - |
| 1778079025 | 28.89° C | 26% | 995.2 hPa | 0 mm | - | - | - |
| 1778078905 | 28.89° C | 26% | 995.1 hPa | 0 mm | - | - | - |
| 1778078786 | 28.89° C | 27% | 995.2 hPa | 0 mm | - | - | - |
| 1778078666 | 28.33° C | 28% | 995.3 hPa | 0 mm | - | - | - |
| 1778078545 | 27.78° C | 27% | 995.2 hPa | 0 mm | - | - | - |
| 1778078425 | 27.78° C | 27% | 995.3 hPa | 0 mm | - | - | - |
| 1778078366 | 27.78° C | 27% | 995.3 hPa | 0 mm | - | - | - |
| 1778078186 | 27.78° C | 27% | 995.3 hPa | 0 mm | - | - | - |
| 1778078006 | 28.33° C | 25% | 995.2 hPa | 0 mm | - | - | - |
| 1778077945 | 28.33° C | 25% | 995.3 hPa | 0 mm | - | - | - |
| 1778077825 | 28.89° C | 24% | 995.2 hPa | 0 mm | - | - | - |
| 1778077585 | 29.44° C | 24% | 995.2 hPa | 0 mm | - | - | - |
| 1778077467 | 30° C | 24% | 995.1 hPa | 0 mm | - | - | - |
| 1778077406 | 30° C | 24% | 995.2 hPa | 0 mm | - | - | - |
| 1778077046 | 29.44° C | 25% | 995.2 hPa | 0 mm | - | - | - |
| 1778076987 | 29.44° C | 25% | 995.1 hPa | 0 mm | - | - | - |
| 1778076926 | 29.44° C | 25% | 995.2 hPa | 0 mm | - | - | - |
| 1778076806 | 29.44° C | 25% | 995.2 hPa | 0 mm | - | - | - |
| 1778076746 | 29.44° C | 25% | 995.3 hPa | 0 mm | - | - | - |
| 1778076625 | 29.44° C | 26% | 995.3 hPa | 0 mm | - | - | - |
| 1778076385 | 28.89° C | 26% | 995.2 hPa | 0 mm | - | - | - |
| 1778076326 | 28.89° C | 27% | 995.4 hPa | 0 mm | - | - | - |
| 1778076145 | 28.89° C | 27% | 995.1 hPa | 0 mm | - | - | - |
* Rain latest hour (hover to see other rain measurements)
** Current wind speed in m/s (hover to see current wind gust speed)